THORAD AGENA D DEB, 5129

Orbit data source: Space-Track

THORAD AGENA D DEB, 5129 is space debris in SSO originally from a launch on Wed, 08 Apr 1970 UTC launched from the Air Force Western Test Range (AFWTR). Debris objects in space refer to the collection of defunct objects orbiting the Earth. Examples of debris include non-operational satellites, rocket bodies, and fragments generated from explosions, collisions, or faulty payload assembly.

Loading next visibility...
Identifier
5129, 1970-025JN
Orbit
SSO
Country
Flag of USUS
Related business
Manufacturer
Unknown
Mission
Spacecraft
Bus & Motor
Unknown
Mass
Unknown
Launch date (UTC)
1970-04-08 (56 years ago)
Launch vehicle
Unknown
Launch site
Air Force Western Test Range (AFWTR)
Object type
Payload
Rocket body
Debris
Shape & HBR
Unknown shape, 0.1 m
Radar Cross Section
Small (<0.1 m²)

Expand to show TLE details & history
Last TLE update: 14 hours ago

TLE from 14 hours ago
0 THORAD AGENA D DEB
1 05129U 70025JN  25340.77403878  .00003569  00000-0  45282-2 0  9995
2 05129  99.3146  76.2921 0194936 206.6014 307.0565 13.56487083707543
Epoch: 2025-12-06T18:34Z
TLE epoch observation values (Epoch: 2025-12-06T18:34:36.950Z)
Latitude
27.7896°
Longitude
-93.22599°
Altitude
966.38 km
Speed
7.413 km/s
True Right ascension
17h 24m 53s
True Declination
27° 39' 07"
Sunlit
Object was in daylight at epoch
Visualization orbit readout
Latitude
Unknown
Longitude
Unknown
Altitude
Unknown
Speed
Unknown
Apparent Right ascension
Unknown
Apparent Declination
Unknown
Sunlit
N/A
Visualization observer readout
Local Sidereal Time
06:27:20
Azimuth
Unknown
Elevation
Unknown
Doppler factor
Unknown
Orbital elements
Apogee altitude
1,190.476 km
Perigee altitude
901.04 km
Semi-major axis
7,423.895 km
Eccentricity
0.01949
Inclination
99.3146°
RAAN
76.2921°
Arg. of periapsis
206.6014°
True anomaly
305.24758°
Mean anomaly
307.0565°
Eccentric anomaly
306.15468°
Mean motion
3.39309 °/min
Orbital period
106.1 mins
BSTAR
0.0045282
Loading maneuver chart data...
Computing Atmospheric mass density...

Documentation

Showing up to 5 results
|